sat.trackr.live / text

‹ back to catalog

STARLINK-3252

NORAD 49733 · 2021-115K

PAYLOAD ACTIVE UNKNOWN

§ Identity

Operator
Country
US
Launch date
2021-12-02
Launch site
AFETR
Launch vehicle
Mass (kg)
RCS (m²)

Purposes: comms

External: N2YO · Heavens-Above · Gunter

§ Orbital elements

Epoch: 2026-09-19T23:43:00.784992Z

Period
94.01 min
Inclination
53.1602°
Eccentricity
0.0001116
Mean motion
15.31682665 rev/d
Perigee alt
470.0 km
Apogee alt
471.6 km
Semi-major
6,848.9 km
B*
1.5224e-4
RAAN
354.2200°
Arg perigee
76.8666°
Mean anomaly
283.2460°
Rev number
26,489

§ Raw data

STARLINK-32521 49733U 21115K   26262.98820353  .00004359  00000+0  15224-3 0  99992 49733  53.1602 354.2200 0001116  76.8666 283.2460 15.31682665264896

JSON: /api/v1/satellites/49733 · /tle

For live sub-satellite position, see the globe view (requires WebGL).

§ Visibility from observer

Set your observer location to see the next 7 days of passes ≥ 10°. The values pass through the URL so the page stays shareable.

No JS? Fill the form by hand. The geolocation button needs JavaScript.